TimeEST,TemperatureF,Dew PointF,Humidity,Sea Level PressureIn,VisibilityMPH,Wind Direction,Wind SpeedMPH,Gust SpeedMPH,PrecipitationIn,Events,Conditions,WindDirDegrees,DateUTC
12:51 AM,30.0,19.0,64,30.01,10.0,West,13.8,21.9,0.00,Snow,Light Snow,270,2012-11-24 05:51:00
1:51 AM,30.0,19.0,64,30.00,9.0,West,9.2,-,0.00,Snow,Light Snow,260,2012-11-24 06:51:00
2:51 AM,30.0,19.9,66,30.01,9.0,West,9.2,-,0.00,Snow,Light Snow,260,2012-11-24 07:51:00
3:51 AM,30.0,21.0,69,30.01,9.0,West,13.8,19.6,0.00,Snow,Light Snow,260,2012-11-24 08:51:00
4:41 AM,30.2,21.2,69,29.97,9.0,West,8.1,17.3,0.00,Snow,Light Snow,270,2012-11-24 09:41:00
4:51 AM,30.0,21.0,69,30.02,9.0,West,9.2,20.7,0.00,Snow,Light Snow,270,2012-11-24 09:51:00
5:51 AM,30.0,21.9,72,30.04,9.0,West,11.5,18.4,0.00,Snow,Light Snow,270,2012-11-24 10:51:00
6:51 AM,28.0,24.1,85,30.05,4.0,WSW,8.1,-,0.02,Snow,Light Snow,240,2012-11-24 11:51:00
7:51 AM,28.0,25.0,88,30.07,2.0,West,8.1,-,0.01,Snow,Light Snow,260,2012-11-24 12:51:00
8:51 AM,28.9,25.0,85,30.07,4.0,West,10.4,-,0.00,Snow,Light Snow,260,2012-11-24 13:51:00
9:51 AM,30.0,24.1,79,30.07,6.0,West,12.7,-,0.00,Snow,Light Snow,260,2012-11-24 14:51:00
10:51 AM,30.9,23.0,72,30.09,6.0,West,18.4,24.2,0.00,Snow,Light Snow,280,2012-11-24 15:51:00
11:51 AM,30.9,24.1,76,30.07,6.0,West,15.0,24.2,0.00,Snow,Light Snow,270,2012-11-24 16:51:00
12:13 PM,32.0,24.8,75,30.01,5.0,West,19.6,26.5,0.00,Snow,Light Snow,280,2012-11-24 17:13:00
12:51 PM,30.9,24.1,76,30.06,5.0,WNW,17.3,24.2,0.00,Snow,Light Snow,290,2012-11-24 17:51:00
1:51 PM,30.9,23.0,72,30.06,5.0,West,17.3,23.0,0.00,Snow,Light Snow,280,2012-11-24 18:51:00
2:51 PM,32.0,23.0,69,30.06,9.0,West,13.8,-,0.00,Snow,Light Snow,280,2012-11-24 19:51:00
3:39 PM,30.2,21.2,69,30.02,8.0,West,13.8,-,0.00,Snow,Light Snow,280,2012-11-24 20:39:00
3:51 PM,30.9,21.9,69,30.08,9.0,West,15.0,-,0.00,Snow,Light Snow,280,2012-11-24 20:51:00
4:51 PM,30.9,19.9,64,30.09,10.0,West,11.5,18.4,0.00,,Mostly Cloudy,270,2012-11-24 21:51:00
5:51 PM,30.2,19.4,64,30.04,10.0,West,10.4,17.3,N/A,,Overcast,260,2012-11-24 22:51:00
6:51 PM,30.0,18.0,61,30.11,10.0,West,12.7,21.9,N/A,,Mostly Cloudy,270,2012-11-24 23:51:00
7:51 PM,30.0,18.0,61,30.12,10.0,West,12.7,-,N/A,,Overcast,270,2012-11-25 00:51:00
8:51 PM,30.0,17.1,59,30.12,10.0,West,11.5,19.6,N/A,,Overcast,270,2012-11-25 01:51:00
9:51 PM,30.0,18.0,61,30.12,10.0,West,13.8,-,N/A,,Overcast,280,2012-11-25 02:51:00
10:51 PM,30.0,18.0,61,30.10,10.0,West,6.9,-,N/A,,Overcast,280,2012-11-25 03:51:00
11:21 PM,30.2,19.4,64,30.03,10.0,West,4.6,-,N/A,,Overcast,260,2012-11-25 04:21:00
11:51 PM,30.0,18.0,61,30.09,10.0,West,9.2,-,N/A,,Overcast,280,2012-11-25 04:51:00